Weather History for Haines, AK

Change the Weather History Date:

Friday, February 8, 2013

  Actual Average Record
Temperature  
Mean Temperature 36 °F -  
Max Temperature 39 °F 30 °F 48 °F (1982)
Min Temperature 33 °F 22 °F -11 °F (2008)
Degree Days  
Heating Degree Days 29    
Moisture  
Dew Point 34 °F    
Average Humidity 91    
Maximum Humidity 100    
Minimum Humidity 81    
Precipitation  
Precipitation 0.11 in - - ()
Sea Level Pressure  
Sea Level Pressure 29.83 in    
Wind  
Wind Speed 13 mph (ENE)    
Max Wind Speed 17 mph    
Max Gust Speed 33 mph    
Visibility 9 miles    
Events Rain , Snow    
Averages and records for this station are not official NWS values.
T = Trace of Precipitation, MM = Missing Value Source: NWS Daily Summary

Daily Weather History Graph

Daily Weather History Graph

Search for Another Location

Airport:

Trip Planner

Search our weather history database for the weather conditions in past years. The results will help you decide how hot, cold, wet, or windy it might be!

Date:

Astronomy

Feb. 08, 2013 Rise Set
Actual Time 7:54 AM AKST 4:39 PM AKST
Civil Twilight 7:09 AM AKST 5:23 PM AKST
Nautical Twilight 6:21 AM AKST 6:11 PM AKST
Astronomical Twilight 5:34 AM AKST 6:59 PM AKST
Moon 6:39 AM AKST (2/8) 3:14 PM AKST (2/8)
Length of Visible Light 10h 13m
Length of Day
8h 45m
Waning Crescent, 3% of the Moon is Illuminated
Feb 8
Waning Crescent
Feb 9
New
Feb 17
First Quarter
Feb 25
Full
Mar 4
Last Quarter

Hourly Weather History & Observations

Time (AKST) Temp. Windchill Dew Point Humidity Pressure Visibility Wind Dir Wind Speed Gust Speed Precip Events Conditions
12:54 AM 34.0 °F 23.8 °F 33.1 °F 96% 29.73 in 8.0 mi East 16.1 mph 33.4 mph 0.02 in Snow Light Snow
1:54 AM 35.1 °F 24.8 °F 33.1 °F 92% 29.73 in 8.0 mi East 17.3 mph 27.6 mph 0.01 in Rain Light Rain
2:54 AM 35.1 °F 24.8 °F 33.1 °F 92% 29.71 in 10.0 mi East 17.3 mph 31.1 mph 0.02 in Rain Light Rain
3:54 AM 35.1 °F 25.2 °F 33.1 °F 92% 29.70 in 9.0 mi East 16.1 mph 29.9 mph 0.02 in Rain Light Rain
4:54 AM 35.1 °F 25.2 °F 33.1 °F 92% 29.68 in 8.0 mi East 16.1 mph 29.9 mph 0.03 in Rain Light Rain
5:54 AM 35.1 °F 25.5 °F 33.1 °F 92% 29.68 in 10.0 mi ENE 15.0 mph 24.2 mph 0.00 in Rain Light Rain
6:27 AM 35.6 °F 25.9 °F 33.8 °F 93% 29.67 in 10.0 mi East 16.1 mph 29.9 mph 0.01 in   Overcast
6:54 AM 36.0 °F 26.3 °F 33.1 °F 89% 29.68 in 10.0 mi East 16.1 mph 24.2 mph 0.01 in Rain Light Rain
7:54 AM 36.0 °F 27.1 °F 34.0 °F 93% 29.69 in 10.0 mi East 13.8 mph 23.0 mph 0.00 in   Overcast
8:54 AM 36.0 °F 28.0 °F 34.0 °F 93% 29.70 in 10.0 mi East 11.5 mph 20.7 mph N/A   Overcast
9:22 AM 35.6 °F 27.1 °F 33.8 °F 93% 29.69 in 10.0 mi East 12.7 mph 19.6 mph N/A   Overcast
9:54 AM 36.0 °F 29.6 °F 34.0 °F 93% 29.70 in 10.0 mi East 8.1 mph 20.7 mph N/A   Overcast
10:23 AM 37.4 °F 29.8 °F 33.8 °F 87% 29.71 in 10.0 mi ESE 11.5 mph 26.5 mph 0.00 in Rain Light Rain
10:54 AM 37.0 °F 28.5 °F 34.0 °F 89% 29.72 in 10.0 mi East 13.8 mph 27.6 mph 0.00 in Rain Light Rain
11:54 AM 37.9 °F 32.1 °F 35.1 °F 89% 29.74 in 10.0 mi East 8.1 mph 19.6 mph 0.00 in   Overcast
12:54 PM 39.0 °F 34.0 °F 34.0 °F 82% 29.77 in 10.0 mi Variable 6.9 mph 18.4 mph N/A   Mostly Cloudy
1:34 PM 39.2 °F 32.5 °F 33.8 °F 81% 29.78 in 10.0 mi East 10.4 mph 17.3 mph N/A   Overcast
1:54 PM 39.0 °F 33.4 °F 34.0 °F 82% 29.79 in 10.0 mi ENE 8.1 mph - N/A   Mostly Cloudy
2:24 PM 39.2 °F 31.6 °F 35.6 °F 87% 29.79 in 10.0 mi East 12.7 mph 21.9 mph N/A   Mostly Cloudy
2:47 PM 39.2 °F 32.5 °F 35.6 °F 87% 29.80 in 10.0 mi East 10.4 mph 20.7 mph N/A   Mostly Cloudy
2:54 PM 39.0 °F 31.4 °F 35.1 °F 86% 29.81 in 10.0 mi ENE 12.7 mph 20.7 mph N/A   Overcast
3:54 PM 37.9 °F 30.9 °F 36.0 °F 93% 29.86 in 10.0 mi ENE 10.4 mph - N/A   Overcast
4:54 PM 37.9 °F 31.5 °F 36.0 °F 93% 29.88 in 10.0 mi ENE 9.2 mph 16.1 mph N/A   Overcast
5:26 PM 37.4 °F 32.1 °F 35.6 °F 93% 29.89 in 10.0 mi ENE 6.9 mph 17.3 mph N/A   Overcast
5:54 PM 37.9 °F 31.5 °F 35.1 °F 89% 29.92 in 10.0 mi ENE 9.2 mph 17.3 mph N/A   Overcast
6:54 PM 39.0 °F 35.7 °F 35.1 °F 86% 29.94 in 10.0 mi ENE 4.6 mph - N/A   Overcast
7:54 PM 36.0 °F 29.6 °F 33.1 °F 89% 29.98 in 10.0 mi WNW 8.1 mph - N/A   Overcast
8:11 PM 35.6 °F 30.7 °F 33.8 °F 93% 29.98 in 10.0 mi West 5.8 mph - N/A   Overcast
8:54 PM 35.1 °F 29.3 °F 33.1 °F 92% 30.01 in 10.0 mi WNW 6.9 mph - N/A   Overcast
9:54 PM 35.1 °F 30.1 °F 33.1 °F 92% 30.04 in 10.0 mi WNW 5.8 mph - N/A   Overcast
10:54 PM 34.0 °F 27.2 °F 34.0 °F 100% 30.05 in 9.0 mi WNW 8.1 mph - N/A   Overcast
11:18 PM 33.8 °F 27.0 °F 33.8 °F 100% 30.05 in 1.8 mi WNW 8.1 mph - N/A   Overcast
11:30 PM 33.8 °F 27.7 °F 33.8 °F 100% 30.05 in 3.0 mi WNW 6.9 mph - N/A   Overcast
11:39 PM 33.8 °F 27.7 °F 33.8 °F 100% 30.06 in 5.0 mi WNW 6.9 mph - N/A   Overcast
11:54 PM 34.0 °F 27.2 °F 33.1 °F 96% 30.07 in 6.0 mi WNW 8.1 mph - N/A   Overcast